Regional Weather Roundup
Issued by NWS Charleston, SC

Current Version | Previous Version | Graphics & Text | Print | Product List | Glossary On
Versions: 1 2 3 4 5 6 7 8 9 10 11 12 13 14 15 16 17 18 19 20 21 22 23 24 25 26 27 28 29 30 31 32 33 34 35 36 37 38 39 40 41 42 43 44 45 46 47 48 49 50
000 ASUS42 KCHS 251110 RWRCHS REGIONAL WEATHER ROUNDUP NATIONAL WEATHER SERVICE CHARLESTON SC 700 AM EDT SAT OCT 25 2014 NOTE: "FAIR" INDICATES FEW OR NO CLOUDS BELOW 12,000 FEET WITH NO SIGNIFICANT WEATHER AND/OR OBSTRUCTIONS TO VISIBILITY. NOT ALL STATIONS ARE QUALITY CONTROLLED BY THE NATIONAL WEATHER SERVICE. USE DATA WITH CAUTION...ESPECIALLY DEWPOINT OBSERVATIONS. SCZ027-030-031-034>040-042>050-251200- ...SOUTH CAROLINA... CITY SKY/WX TMP DP RH WIND PRES REMARKS N CHARLESTON CLEAR 50 47 89 NW3 30.01R WATERFRONT PRK N/A 59 N/A N/A NW6 N/A FORT JOHNSON NOT AVBL JOHNS ISLAND SUNNY 52 50 93 CALM 30.01R PINOPOLIS NOT AVBL MONCKS CORNER FAIR 46 46 100 CALM 30.01R FOG SUMMERVILLE FAIR 45 45 100 CALM 30.03R BEAUFORT MCAS CLEAR 50 48 93 N3 30.01R BEAUFORT ARPT FAIR 52 52 100 CALM 30.00R HILTON HEAD IS CLEAR 52 48 87 W3 30.01R GEORGETOWN NOT AVBL WALTERBORO SUNNY 45 N/A N/A CALM 30.02R ORANGEBURG CLEAR 44 41 89 CALM 30.01S BARNWELL FAIR 41 39 93 CALM 30.02S AIKEN FAIR 41 41 100 CALM 30.04S MANNING FAIR 41 N/A N/A CALM 30.02R KINGSTREE NOT AVBL COLUMBIA PTCLDY 41 39 93 CALM 30.02R FOG SUMTER CLEAR 46 45 97 W2 30.00S FLORENCE CLEAR 44 42 93 NW3 30.01R MYRTLE BEACH CLEAR 52 46 82 CALM 30.00R N MYRTLE BEACH CLEAR 46 45 96 CALM 30.00R $$ GAZ063-065-086>088-099>101-113>116-118-119-134-136>141-150-251200- ...GEORGIA... CITY SKY/WX TMP DP RH WIND PRES REMARKS SAVANNAH ARPT CLEAR 50 46 86 CALM 30.01S HUNTER AAF CLEAR 46 45 97 W3 29.99R FORT STEWART CLEAR 44 43 94 CALM 29.99S STATESBORO NOT AVBL SYLVANIA SUNNY 47 46 97 CALM 30.01S CLAXTON FAIR 43 43 100 CALM 30.01S THOMSON CLEAR 42 42 100 CALM 30.07R AUGUSTA-BUSH CLEAR 41 39 93 W3 30.02R AUGUSTA-DANIEL CLEAR 52 45 77 N3 30.02R SWAINSBORO FAIR 43 43 100 MISG 30.01S VIDALIA CLEAR 46 45 93 CALM 30.01R ALMA CLEAR 45 43 93 CALM 30.00S FOG WAYCROSS CLEAR 49 47 95 CALM 30.00S JESUP FAIR 43 43 100 CALM 30.01R BRUNSWICK CLEAR 46 45 93 CALM 30.01R SAINT SIMONS CLEAR 49 48 97 CALM 30.00R $$ SCZ027-028-034-036>038-045-046-048>050-GAZ119-141-251200- ...LAKE AND SUPPLEMENTAL COASTAL OBSERVATIONS... STATION/POSITION TIME TEMP WIND PRES WAVE SWELL AIR SEA DIR/SP/G HT/PER HT/PER/DIR (UTC) (F) (DEG/KT/KT) (MB) (FT/S) (FT/S/D) UPR LAKE MARION NOT AVBL WINYAH BAY 1000 51 310/ 3 1015.0S LAKE MURRAY 1000 49 320/ 1/ 3 1015.9S ACE BASIN NERRS 1000 50 CALM 1015.0S FORT PULASKI 1100 57 310/ 8/ 9 1016.1R SAPELO ISLAND NOT AVBL $$ ANZ835-935-AMZ111-154-330-350-352-354-374-450-454-472-251200- ...C-MAN AND BUOY OBSERVATIONS... STATION/POSITION TIME TEMP WIND PRES WAVE SWELL AIR SEA DIR/SP/G HT/PER HT/PER/DIR (UTC) (F) (DEG/KT/KT) (MB) (FT/S) (FT/S/D) FOLLY BEACH CMAN 1000 57 300/ 4/ 5 1015.9R BUOY 41004 1100 69 78 350/ 6/ 10 1014.9R 3/11 3/11 BUOY 41008 1100 69 74 350/ 10/ 12 1015.4R 2/10 2/100/10 5E ST. MARYS GA 1100 75 N/A 2/11 FRYING PAN BUOY 1100 67 74 40/ 4/ 6 1015.7R 2/ 9 2/ 90/ 9 BUOY 41025 1100 64 320/ 12/ 14 1014.3R 3/ 9 2/ 40/ 9 CAPE LOOKOUT NC 1000 60 350/ 5/ 5 1014.4R BUOY 41002 0959 71 77 10/ 8/ 12 1013.4F 4/ 9 3/ 10/ 9 BUOY 41010 1100 76 82 30/ 10/ 14 1012.8S 3/11 2/ 60/11 BUOY 41012 NOT AVBL ST AUGUSTINE FL 1100 60 310/ 9/ 10 1015.8R CAPERS NEARSHORE NOT AVBL FRIPP NEARSHORE NOT AVBL $$

USA.gov is the U.S. government's official web portal to all federal, state and local government web resources and services.